Temp
11 11 11 11 11 12 12 10 10 10 10 12 13 13 13 13 14 14 14 15 15 16 15 15 14 14 14 14 14 14 14 14 12 11 11 10 9 8 7 7 7 8 7
10 11 11 11 11 11 11 10 11 11 11 12 12 12 13 13 13 13 14 14 14 15 13 12 12 12 12 12 13 12 12 12 11 9 8 7 7 7 7 7 7 7 7
10 10 10 10 10 10 10 10 10 10 11 11 11 11 11 11 11 12 13 12 12 11 11 11 11 11 11 11 11 11 11 10 9 9 7 6 6 6 6 6 6 6 6
10 9 9 9 9 9 9 9 9 9 9 10 10 10 10 10 11 11 11 11 11 10 10 10 9 9 10 10 9 9 9 9 8 8 7 6 6 6 6 6 5 5 5
9 9 9 9 9 9 9 9 9 9 9 9 9 9 9 10 10 10 10 10 10 9 9 9 9 9 9 9 9 8 8 8 7 7 6 6 6 5 5 4 4 4 4
9 9 9 9 9 9 9 9 9 8 9 9 9 9 9 9 9 9 9 9 9 9 8 8 8 8 7 8 8 7 7 7 7 6 5 5 4 4 4 3 3 3 3
9 9 9 9 9 9 8 9 8 8 8 8 8 8 8 8 8 8 8 8 8 8 8 7 7 7 7 6 6 6 5 6 6 6 5 4 3 3 3 3 2 2 2
9 8 9 9 9 8 8 8 8 8 8 8 8 8 8 7 8 8 8 8 7 7 7 7 7 6 6 6 6 5 5 5 5 4 4 3 2 2 2 2 2 2 1
8 8 8 9 8 8 8 8 8 8 7 7 7 7 7 7 7 8 8 7 7 6 6 6 6 5 5 5 5 5 4 4 3 3 2 2 1 1 1 1 1 1 0
9 9 9 9 9 9 8 8 7 7 7 7 7 7 7 6 7 7 7 7 6 5 5 5 5 5 4 4 4 4 4 3 3 3 3 2 2 1 1 1 1 0 0
9 10 10 9 9 9 8 8 7 7 7 6 6 6 6 6 6 6 6 6 6 5 5 4 4 3 3 3 3 4 4 3 2 3 3 2 2 1 1 1 1 1 0
10 10 9 9 9 8 8 7 7 7 6 5 5 5 5 5 5 5 6 6 5 5 4 3 3 3 2 2 2 3 2 2 2 2 2 2 1 1 1 1 1 0 0
10 9 9 9 9 8 8 7 6 6 6 5 5 5 5 5 5 5 5 5 5 4 3 3 2 2 1 2 2 2 1 1 2 1 2 1 1 1 1 1 0 0 0
9 9 9 8 8 8 8 7 7 6 5 5 4 4 4 4 4 4 4 4 4 3 2 2 2 1 1 1 1 1 1 1 1 1 1 1 0 0 0 -0 -0 -0 -0
9 9 8 8 8 8 8 8 7 7 8 6 6 5 4 4 4 4 4 3 3 3 2 2 2 1 1 1 1 1 0 1 0 0 0 -0 -1 -1 -1 -1 -1 -0 -1
7 7 8 7 7 8 7 7 7 8 7 7 7 7 6 6 5 4 4 4 3 3 2 2 1 1 1 1 0 0 0 0 0 -0 -1 -1 -1 -1 -1 -1 -1 -1 -1
8 7 7 7 7 7 7 7 6 6 7 7 6 6 6 6 5 4 4 3 2 2 2 2 1 1 1 1 0 0 0 -0 -1 -1 -1 -1 -1 -1 -1 -1 -1 -1 -1
9 8 7 7 7 7 7 7 7 6 6 6 6 6 6 6 5 4 3 2 2 2 2 2 1 1 1 1 0 -0 -0 -1 -1 -1 -2 -2 -2 -2 -2 -2 -2 -2 -2
9 7 7 7 7 7 7 7 7 7 6 6 6 6 6 5 4 4 3 4 3 2 2 1 1 1 1 0 -0 -1 -1 -1 -2 -2 -2 -2 -2 -2 -2 -2 -2 -2 -2
9 9 8 8 7 7 7 6 6 6 6 6 5 5 4 4 3 3 3 3 2 2 2 1 1 1 0 -0 -1 -1 -2 -2 -2 -2 -2 -3 -3 -3 -3 -3 -3 -3 -3
8 8 8 8 7 7 7 6 6 6 6 5 5 5 4 4 4 3 3 3 2 3 2 1 1 0 -0 -1 -1 -2 -2 -2 -3 -3 -3 -3 -3 -3 -3 -3 -3 -3 -3
10 9 7 8 7 7 6 6 6 6 6 5 4 4 4 4 4 4 4 3 3 2 1 1 1 -0 -1 -2 -2 -2 -2 -3 -3 -3 -3 -3 -4 -4 -4 -3 -3 -3 -3
9 8 7 8 8 7 6 7 7 6 6 6 5 4 3 3 4 4 4 3 2 2 1 0 -0 -1 -2 -2 -3 -3 -3 -3 -3 -3 -4 -4 -4 -4 -4 -4 -4 -3 -3
9 9 8 8 8 7 7 7 7 6 6 6 5 4 3 4 4 4 3 3 2 1 1 0 -1 -1 -2 -3 -3 -3 -3 -3 -3 -4 -4 -4 -5 -4 -4 -4 -4 -4 -4
9 9 8 8 8 7 7 7 6 6 6 6 5 4 4 4 4 4 3 2 2 1 0 -0 -1 -2 -3 -4 -3 -3 -4 -4 -4 -4 -5 -5 -5 -5 -4 -4 -4 -4 -4
10 9 9 9 8 8 7 7 7 6 6 5 5 5 5 5 4 3 3 2 2 1 -0 -1 -2 -2 -3 -4 -4 -4 -5 -5 -5 -5 -5 -5 -5 -4 -5 -5 -4 -4 -4
Height
767 768 768 770 770 770 769 769 769 771 774 775 778 783 787 791 799 807 812 815 818 821 825 830 833 834 836 838 842 842 845 847 851 856 858 861 862 863 864 865 866 866 868
770 770 770 771 772 773 772 772 773 774 776 777 781 784 789 794 801 807 811 813 815 821 827 830 833 836 837 839 839 844 846 847 850 852 856 858 860 862 863 864 864 864 864
773 773 773 774 775 775 776 775 777 779 781 784 787 790 795 800 804 808 811 814 820 825 828 834 833 837 838 840 841 844 845 846 849 851 854 857 859 861 862 864 864 863 863
774 775 775 777 778 779 779 780 781 784 785 787 790 795 799 803 807 811 813 816 820 826 827 831 835 837 839 840 842 843 844 846 849 850 853 856 858 859 861 862 864 863 862
776 777 778 780 782 782 783 785 786 787 789 792 794 797 801 805 808 812 815 818 821 825 829 832 835 835 838 840 841 842 844 846 849 850 854 856 857 859 859 861 862 862 862
777 779 780 782 785 786 788 790 791 793 795 797 800 802 805 808 810 814 817 820 824 827 829 833 835 839 841 841 844 845 846 847 848 850 852 853 856 856 858 860 860 861 861
779 781 782 784 786 789 791 793 796 798 800 802 805 808 810 813 816 819 822 825 827 829 833 835 838 841 841 844 847 847 848 848 850 851 852 854 855 855 857 858 859 859 860
780 782 784 787 789 793 795 797 799 802 804 806 809 811 813 816 819 821 824 827 829 831 834 837 838 842 846 847 846 847 851 850 851 852 852 854 855 856 858 858 858 859 860
780 783 786 789 792 794 797 800 802 804 808 810 812 814 816 820 822 824 825 827 830 833 837 839 842 844 846 847 849 849 851 852 853 852 854 856 857 857 856 856 857 858 860
778 781 785 789 792 796 798 802 805 808 810 813 816 819 822 823 826 828 829 831 833 837 840 842 845 846 848 848 848 849 850 851 853 855 856 857 858 858 858 858 857 857 858
777 781 786 790 793 797 801 804 807 810 813 817 819 821 824 826 829 831 834 835 837 840 842 845 847 848 850 850 850 850 852 854 855 856 856 857 858 858 857 857 858 858 858
777 782 786 791 795 800 803 807 810 813 816 818 821 825 828 830 833 835 837 839 841 843 845 848 850 851 852 852 852 853 854 854 855 855 856 857 858 858 858 857 858 857 857
776 781 787 791 795 800 804 808 812 815 819 821 824 826 829 833 835 838 840 842 844 846 848 849 851 851 851 852 853 854 854 854 855 855 855 855 856 857 858 857 856 856 855
774 780 786 790 794 799 803 807 811 815 819 822 826 829 833 835 837 838 840 842 845 846 849 850 850 851 852 852 853 853 854 854 854 855 854 855 855 855 856 856 854 854 854
772 778 784 789 793 796 801 804 808 813 815 818 823 826 830 833 836 839 841 843 844 846 848 850 850 851 853 853 854 854 854 854 854 854 854 855 854 854 855 854 853 853 852
769 775 781 787 793 797 802 807 812 816 819 822 824 826 829 832 835 838 841 843 845 846 848 849 849 851 852 853 854 854 854 853 853 854 854 853 853 853 853 853 851 851 850
764 770 777 783 790 795 800 805 810 816 819 822 825 829 831 832 835 837 840 842 845 847 848 849 849 851 851 852 853 853 852 852 852 852 852 852 852 852 851 851 850 849 848
762 768 773 779 786 792 798 803 808 811 814 818 822 825 829 831 834 837 839 842 845 846 847 847 848 850 851 852 852 851 851 852 852 851 851 851 851 850 850 849 849 848 847
759 766 772 779 784 791 797 803 807 810 813 816 820 824 828 831 834 837 838 839 840 843 846 847 849 849 850 850 850 850 851 851 851 850 850 850 850 849 849 848 847 846 845
757 763 769 775 782 789 794 799 803 807 811 814 817 821 826 831 833 834 835 837 840 842 845 846 847 847 848 849 849 850 850 850 850 850 850 849 849 848 848 847 846 845 843
754 761 767 774 779 784 789 794 799 803 807 811 815 820 823 826 829 832 834 836 838 839 841 843 844 845 846 847 847 848 848 848 849 848 848 848 847 846 846 845 845 843 842
749 756 762 768 774 779 785 790 795 799 803 808 813 818 821 824 826 829 831 834 836 838 839 841 843 844 845 845 845 846 846 847 847 847 847 846 846 845 845 844 843 842 840
745 752 759 765 770 776 782 786 790 795 799 804 808 813 816 819 823 826 829 832 834 836 838 840 841 842 843 843 844 845 845 846 846 846 846 846 846 845 844 842 841 839 837
741 748 754 760 766 771 775 780 785 791 795 799 804 808 812 815 820 823 827 830 833 835 836 838 839 841 841 842 843 844 845 845 845 845 845 845 844 844 842 841 839 837 835
737 744 750 755 761 765 771 776 781 786 791 795 800 804 808 812 816 821 825 828 831 832 835 837 838 839 840 841 843 844 844 845 845 845 844 844 843 842 841 839 837 835 833
733 740 745 751 756 761 766 771 776 781 786 791 795 800 804 809 814 818 822 825 828 831 833 835 837 838 840 841 842 843 843 843 843 843 843 843 842 841 839 838 836 833 831
Wind_Speed
6 7 8 9 7 5 5 9 18 22 24 29 31 29 29 30 27 24 24 24 25 20 19 18 18 18 18 18 17 15 12 7 6 6 8 9 8 6 7 6 5 4 3
8 9 9 8 8 10 9 12 17 22 21 23 24 24 24 22 22 23 25 22 22 20 22 25 22 19 17 13 11 4 4 2 4 7 7 7 6 8 9 8 5 4 5
12 12 12 12 12 12 13 14 14 15 18 21 23 24 24 24 24 25 25 23 23 22 19 13 14 7 6 5 4 6 6 5 5 5 5 6 5 8 6 5 4 3 4
14 15 17 15 15 15 16 16 16 14 15 17 19 20 20 19 18 18 21 22 20 14 9 6 6 5 4 4 4 3 4 6 5 6 6 5 4 5 4 3 2 2 6
18 20 20 18 17 18 18 17 17 17 16 16 16 16 15 16 16 17 15 14 13 12 11 8 6 4 4 4 5 8 8 9 9 7 5 3 3 3 2 2 1 4 2
21 21 21 19 18 18 19 19 20 21 21 21 21 20 18 16 14 13 14 15 14 12 11 10 9 9 8 8 8 7 6 8 7 5 4 3 3 3 4 2 1 3 2
21 20 21 20 19 19 20 20 20 21 20 21 20 20 19 17 15 15 14 15 15 15 15 15 15 13 13 13 11 10 8 4 2 2 4 3 3 2 2 2 3 3 4
22 21 20 20 20 19 19 20 20 19 20 21 21 20 20 18 16 17 17 18 19 17 15 13 13 13 11 9 6 7 6 4 5 5 5 4 2 2 4 4 3 4 5
20 20 22 23 23 22 23 23 22 23 23 23 23 22 22 19 17 18 19 18 17 15 12 11 10 9 6 5 5 6 8 7 6 7 8 7 5 4 4 3 3 3 0
21 23 25 25 24 24 24 23 22 23 23 23 22 20 18 18 15 15 14 15 16 15 12 10 8 7 5 3 5 7 12 12 10 6 2 1 5 0 3 5 6 5 3
25 25 25 25 25 25 24 24 24 23 22 21 21 19 17 15 14 12 11 11 13 13 11 10 6 4 4 3 1 3 9 11 8 4 3 2 1 2 2 0 1 2 2
29 28 28 27 27 27 26 25 23 22 22 21 19 17 15 14 12 12 11 10 11 11 11 10 9 7 5 5 6 5 7 8 8 5 2 5 2 3 1 2 5 5 5
32 30 30 30 30 29 28 26 24 22 21 19 19 18 17 14 13 12 10 10 10 10 10 9 8 6 3 3 3 3 1 2 2 1 5 5 3 4 6 6 6 6 6
34 33 32 32 32 31 29 29 27 26 23 22 19 18 16 16 15 15 12 13 13 12 11 8 4 4 4 3 2 1 1 1 1 2 2 3 4 4 5 6 6 4 6
35 35 35 34 34 33 32 32 29 27 24 26 23 22 22 20 18 15 14 14 13 13 10 8 5 4 3 3 3 1 1 2 4 4 3 4 4 5 6 5 6 6 7
31 33 34 32 33 33 30 26 23 20 20 17 16 18 18 12 18 15 12 11 11 10 9 7 5 5 5 5 3 1 2 4 4 4 4 5 6 6 6 5 4 6 7
33 33 33 34 34 32 29 27 23 20 18 17 15 16 14 14 16 15 13 10 9 12 9 8 7 6 5 6 3 3 3 4 4 5 5 6 5 6 6 5 7 4 7
34 33 33 35 34 33 32 29 27 26 24 21 18 17 17 15 16 16 14 13 14 14 10 9 7 6 5 4 4 3 3 3 4 5 4 4 4 4 4 5 6 8 10
34 31 32 34 33 33 31 28 27 25 25 23 20 17 17 15 18 17 15 14 16 15 9 7 5 5 6 5 4 4 4 3 3 3 4 5 5 5 6 6 6 7 7
34 34 36 34 32 31 31 31 29 27 26 25 24 22 20 21 23 21 20 16 12 11 10 8 6 6 6 4 4 4 3 2 2 2 3 4 5 5 6 6 6 7 9
32 32 34 32 32 33 33 33 32 30 29 27 25 23 24 25 25 23 20 16 11 10 7 9 7 7 5 4 4 4 4 4 4 3 4 6 5 4 3 4 7 8 7
37 35 33 34 33 32 33 32 32 32 29 27 25 23 24 23 23 21 20 13 11 8 7 7 6 6 5 5 5 4 4 5 4 5 6 3 3 4 7 8 8 8 9
36 34 32 32 33 31 30 31 30 29 28 26 25 25 27 26 23 21 19 11 12 7 7 7 7 6 5 4 3 3 2 4 5 3 1 3 7 8 7 9 10 12 14
35 35 34 33 31 30 31 30 29 27 27 25 24 25 28 26 23 21 15 12 10 8 8 7 6 5 4 3 3 1 2 2 2 2 5 8 6 7 9 11 12 13 13
35 34 33 33 31 32 30 28 27 26 26 25 24 24 24 23 21 17 13 14 10 10 9 7 6 5 3 4 3 2 3 3 4 5 6 6 7 8 11 12 13 15 14
35 33 33 31 31 30 29 28 27 26 25 24 24 24 23 21 19 16 16 15 11 11 9 9 7 4 3 5 5 4 3 3 4 5 4 6 9 11 12 14 15 14 16
Wind_Direction
138 144 146 151 160 148 106 144 146 164 161 154 153 149 152 159 170 188 193 188 188 185 183 192 172 158 146 138 137 137 131 129 126 187 222 240 250 225 213 198 213 252 276
134 136 139 142 145 142 129 134 146 150 149 140 143 146 151 151 164 174 174 166 164 170 171 160 144 144 133 130 137 140 189 225 209 180 211 213 205 201 200 201 210 252 283
138 135 130 128 135 134 130 126 139 151 158 159 158 149 145 145 149 150 151 148 141 138 140 141 143 159 157 173 196 231 255 251 222 181 155 169 165 184 188 210 254 278 309
135 129 123 125 126 126 120 121 124 129 141 155 160 160 159 156 153 150 148 150 155 166 170 194 196 197 208 224 226 193 160 150 151 145 141 151 165 169 198 210 217 337 338
145 136 132 132 131 126 119 117 119 120 125 133 142 147 159 165 166 169 171 171 176 167 160 163 176 190 210 191 171 154 145 136 141 138 135 140 153 177 217 213 247 345 65
152 142 140 138 132 123 120 120 118 118 119 120 119 122 123 124 135 146 154 151 152 152 142 137 127 129 134 134 135 138 146 158 157 155 160 174 180 161 167 199 298 328 300
158 153 151 146 140 135 130 127 124 123 124 121 121 123 119 120 129 134 141 139 138 137 138 138 135 135 131 129 121 114 103 114 135 173 179 165 152 157 205 247 282 303 283
160 160 157 152 144 139 140 135 131 131 131 129 127 125 124 123 136 140 141 140 134 131 134 137 137 140 149 155 142 131 127 97 85 90 87 91 60 314 291 285 277 286 287
158 157 158 157 153 151 144 142 140 137 134 132 131 130 127 124 132 136 138 135 133 132 137 141 142 134 135 173 190 169 150 130 110 70 77 68 43 50 350 279 215 229 145
163 161 165 163 158 155 152 148 146 144 142 140 136 133 130 128 136 141 145 142 134 130 129 133 141 139 128 198 211 192 172 164 161 169 226 115 330 246 66 64 64 75 55
169 173 171 170 166 163 159 156 153 152 149 146 142 142 140 140 142 151 158 158 151 147 150 148 141 119 93 83 174 192 215 199 202 212 251 41 336 232 232 205 45 11 324
178 175 174 173 170 167 165 163 162 157 153 151 149 145 144 141 145 151 154 160 159 153 144 134 119 125 108 92 93 100 121 166 175 155 105 0 278 299 323 264 292 296 286
178 177 177 175 174 172 171 169 165 163 157 154 156 157 157 147 141 141 144 159 166 160 148 140 136 131 142 169 96 109 133 195 199 73 290 310 252 270 282 289 292 287 290
178 179 179 179 177 177 178 176 175 172 167 166 166 165 163 163 158 159 152 152 156 150 146 147 127 103 76 95 120 199 267 231 16 340 329 290 264 260 287 300 291 287 289
177 178 180 184 182 181 185 185 186 187 185 179 180 175 173 178 180 176 171 164 163 161 162 157 153 154 149 121 114 79 352 324 320 309 297 283 291 293 292 298 287 287 294
170 175 180 181 186 187 187 186 196 196 195 200 193 190 188 186 176 176 175 173 173 180 185 190 190 206 212 192 181 244 265 275 282 286 293 294 298 299 301 301 294 308 301
174 176 178 184 187 189 189 186 182 190 200 200 203 201 198 183 183 178 176 177 188 188 210 218 225 219 223 213 230 274 287 292 282 284 290 289 285 289 298 312 318 314 318
180 180 180 184 187 191 192 189 185 182 185 191 199 201 200 193 183 177 174 171 178 206 232 232 221 218 219 238 261 276 280 273 276 289 288 302 284 281 311 322 321 313 317
181 179 185 189 191 192 191 190 190 190 189 186 185 191 191 188 187 184 190 201 203 215 217 224 230 228 231 243 254 247 260 279 284 294 305 304 308 308 306 305 310 316 326
187 189 192 192 189 192 193 192 192 192 190 188 185 180 174 172 173 187 204 214 215 217 227 238 233 229 228 253 241 245 250 263 269 275 295 310 304 297 299 306 326 323 320
183 188 194 193 192 197 198 197 198 197 198 196 194 189 191 193 197 204 210 217 219 210 230 232 230 218 233 230 221 220 235 240 239 252 294 304 295 311 326 329 324 325 335
190 190 191 194 197 198 200 203 203 204 205 205 204 199 199 207 210 212 215 225 215 222 231 217 221 222 230 229 229 225 235 243 239 288 302 286 309 325 324 324 329 329 327
190 187 190 196 201 200 201 205 205 207 208 209 207 200 200 210 214 217 217 223 204 228 203 203 225 229 227 256 222 198 265 271 279 283 264 336 338 333 329 334 332 326 319
192 191 193 197 198 200 203 204 206 208 207 205 202 201 204 211 213 217 215 206 203 205 200 214 224 228 244 219 173 227 267 276 280 277 316 314 316 312 320 330 329 330 331
195 194 196 196 197 202 201 203 204 205 205 202 201 201 205 207 209 209 204 194 204 202 204 213 216 226 243 179 177 214 253 267 278 286 298 306 309 317 319 320 323 322 323
196 197 198 197 198 200 200 200 201 203 202 202 203 203 204 204 201 197 190 194 201 198 206 210 212 212 200 179 198 211 240 267 288 311 322 320 318 318 322 320 319 317 320